KE8WAY Weather Reports


Display with metric or nautical units.
time (UTC)temp
F
wind
direction
speed
MPH
gust
MPH
rain 1hr
in
rain 24hr
in
rain mn
in
humidity
%
barometer
mb
20260503223647 61 208 23.0 25.0 0.00 0.00 0.00 37 1010.1
20260503223143 60 228 25.0 27.0 0.00 0.00 0.00 36 1010.1
20260503222641 60 217 24.0 27.0 0.00 0.00 0.00 37 1010.3
20260503222138 60 239 23.0 24.0 0.00 0.00 0.00 38 1010.3
20260503221637 61 230 34.0 38.0 0.00 0.00 0.00 36 1010.0
20260503221134 61 221 27.0 29.0 0.00 0.00 0.00 36 1010.3
20260503220630 62 230 27.0 31.0 0.00 0.00 0.00 36 1010.1
20260503220127 61 216 17.0 20.0 0.00 0.00 0.00 38 1010.1
20260503215624 61 225 20.0 23.0 0.00 0.00 0.00 38 1010.3
20260503215120 62 231 28.0 31.0 0.00 0.00 0.00 36 1010.1
20260503214619 62 224 23.0 26.0 0.00 0.00 0.00 37 1010.2
20260503214114 63 235 26.0 30.0 0.00 0.00 0.00 35 1010.3
20260503213609 62 222 24.0 26.0 0.00 0.00 0.00 35 1010.2
20260503213104 62 224 26.0 27.0 0.00 0.00 0.00 35 1010.4
20260503212602 62 193 20.0 23.0 0.00 0.00 0.00 36 1010.5
20260503212059 62 242 22.0 24.0 0.00 0.00 0.00 34 1010.2
20260503211556 63 233 29.0 31.0 0.00 0.00 0.00 33 1010.4
20260503211052 62 227 26.0 30.0 0.00 0.00 0.00 34 1010.5
20260503210549 63 224 30.0 32.0 0.00 0.00 0.00 33 1010.3
20260503210044 62 218 24.0 25.0 0.00 0.00 0.00 33 1010.5
20260503205542 63 222 24.0 26.0 0.00 0.00 0.00 33 1010.6
20260503205038 62 209 28.0 34.0 0.00 0.00 0.00 34 1010.3
20260503204535 63 235 29.0 37.0 0.00 0.00 0.00 34 1010.4
20260503204032 63 211 31.0 33.0 0.00 0.00 0.00 34 1010.3
20260503203529 63 216 30.0 32.0 0.00 0.00 0.00 34 1010.6
20260503203026 63 216 26.0 31.0 0.00 0.00 0.00 35 1010.5
20260503202524 63 210 28.0 32.0 0.00 0.00 0.00 32 1010.7
20260503202022 63 225 24.0 26.0 0.00 0.00 0.00 33 1010.8
20260503201520 63 226 30.0 33.0 0.00 0.00 0.00 33 1010.9
20260503201017 63 215 22.0 26.0 0.00 0.00 0.00 35 1010.6
20260503200513 63 218 23.0 24.0 0.00 0.00 0.00 35 1011.1
20260503200010 62 232 19.0 22.0 0.00 0.00 0.00 36 1011.0
20260503195507 63 242 26.0 32.0 0.00 0.00 0.00 33 1011.1
20260503195003 63 221 25.0 26.0 0.00 0.00 0.00 35 1011.0
20260503194501 63 217 24.0 26.0 0.00 0.00 0.00 36 1011.2
20260503193955 63 219 27.0 30.0 0.00 0.00 0.00 32 1011.2
20260503193451 63 215 24.0 27.0 0.00 0.00 0.00 35 1011.1
20260503192947 63 210 24.0 25.0 0.00 0.00 0.00 36 1011.1
20260503192444 62 217 24.0 27.0 0.00 0.00 0.00 36 1011.3
20260503191939 63 220 26.0 29.0 0.00 0.00 0.00 36 1011.2
20260503191437 62 212 28.0 32.0 0.00 0.00 0.00 34 1011.5
20260503190933 63 211 26.0 29.0 0.00 0.00 0.00 37 1011.5
20260503190431 63 225 29.0 33.0 0.00 0.00 0.00 34 1011.4
20260503185927 63 223 25.0 30.0 0.00 0.00 0.00 33 1011.6
20260503185424 62 228 23.0 26.0 0.00 0.00 0.00 34 1011.8
20260503184923 63 245 27.0 31.0 0.00 0.00 0.00 34 1011.7
20260503184420 63 207 15.0 18.0 0.00 0.00 0.00 32 1011.7
20260503183916 63 253 24.0 31.0 0.00 0.00 0.00 32 1012.0
20260503183413 63 227 23.0 25.0 0.00 0.00 0.00 35 1012.1
20260503182910 63 218 25.0 26.0 0.00 0.00 0.00 35 1011.9
20260503182409 62 222 28.0 30.0 0.00 0.00 0.00 35 1011.8
20260503181906 62 232 26.0 29.0 0.00 0.00 0.00 33 1012.0
20260503181403 62 231 24.0 25.0 0.00 0.00 0.00 32 1012.4
20260503180859 62 223 24.0 26.0 0.00 0.00 0.00 35 1012.0
20260503180357 62 227 21.0 24.0 0.00 0.00 0.00 34 1012.1
20260503175853 62 209 24.0 27.0 0.00 0.00 0.00 35 1012.2
20260503175352 61 230 25.0 27.0 0.00 0.00 0.00 35 1012.5
20260503174847 62 235 24.0 26.0 0.00 0.00 0.00 35 1012.6
20260503174345 62 264 23.0 26.0 0.00 0.00 0.00 35 1012.7
20260503173840 62 230 24.0 27.0 0.00 0.00 0.00 38 1012.6
20260503173336 62 241 26.0 29.0 0.00 0.00 0.00 34 1012.6
20260503172833 62 224 20.0 23.0 0.00 0.00 0.00 37 1012.7
20260503172331 61 253 22.0 24.0 0.00 0.00 0.00 32 1012.9
20260503171826 61 231 19.0 22.0 0.00 0.00 0.00 38 1012.8
20260503171324 61 216 27.0 32.0 0.00 0.00 0.00 36 1013.1
20260503170821 62 228 22.0 24.0 0.00 0.00 0.00 38 1013.0
20260503170317 60 212 23.0 25.0 0.00 0.00 0.00 39 1013.0
20260503150710 55 237 18.0 20.0 0.00 0.00 0.00 48 1014.3
20260503150206 55 216 15.0 17.0 0.00 0.00 0.00 52 1014.5
20260503140125 50 235 22.0 25.0 0.00 0.00 0.00 56 1014.8
20260503131054 48 230 17.0 18.0 0.00 0.00 0.00 57 1014.6
20260503130551 48 232 17.0 18.0 0.00 0.00 0.00 59 1014.9
20260503110442 36 215 7.0 8.0 0.00 0.00 0.00 76 1015.1
20260503090333 35 216 6.0 6.0 0.00 0.00 0.00 79 1015.3
20260503081300 34 216 3.0 3.0 0.00 0.00 0.00 81 1015.4
20260503080756 34 219 2.0 2.0 0.00 0.00 0.00 81 1015.3
20260503080254 35 211 4.0 5.0 0.00 0.00 0.00 79 1015.3
20260503072730 35 235 2.0 2.0 0.00 0.00 0.00 81 1015.5
20260503072227 35 224 2.0 2.0 0.00 0.00 0.00 79 1015.4
20260503071724 35 225 3.0 3.0 0.00 0.00 0.00 79 1015.6
20260503071221 35 225 4.0 5.0 0.00 0.00 0.00 79 1015.3
20260503070717 36 232 5.0 5.0 0.00 0.00 0.00 79 1015.5
20260503070215 36 227 5.0 5.0 0.00 0.00 0.00 78 1015.6
20260503033006 42 218 5.0 6.0 0.00 0.04 0.04 70 1016.1
20260503032504 42 211 5.0 6.0 0.00 0.04 0.04 69 1016.1
20260503032002 42 217 5.0 6.0 0.00 0.04 0.04 70 1016.1
20260503031459 42 211 5.0 6.0 0.00 0.04 0.04 70 1016.1
20260503030956 42 202 5.0 6.0 0.00 0.04 0.04 71 1016.1
20260503030452 42 206 3.0 3.0 0.00 0.04 0.04 72 1016.0
20260503025949 43 206 4.0 5.0 0.00 0.04 0.04 70 1016.3
20260503025446 43 209 4.0 5.0 0.00 0.04 0.04 69 1016.2
20260503024944 43 202 3.0 3.0 0.00 0.04 0.04 69 1016.1
20260503024440 43 197 3.0 3.0 0.00 0.04 0.04 67 1016.0
20260503023937 43 197 3.0 3.0 0.00 0.04 0.04 68 1016.3
20260503023434 43 197 3.0 3.0 0.00 0.04 0.04 72 1016.2
20260503022931 43 203 3.0 3.0 0.00 0.04 0.04 71 1016.1
20260503022426 43 219 4.0 5.0 0.00 0.04 0.04 68 1016.2
20260503021922 44 210 3.0 3.0 0.00 0.04 0.04 70 1016.4
20260503021418 44 201 3.0 3.0 0.00 0.04 0.04 69 1016.2
20260503020916 44 188 3.0 3.0 0.00 0.04 0.04 68 1016.0
20260503020414 44 185 3.0 3.0 0.00 0.04 0.04 65 1016.2
20260503015910 44 186 3.0 3.0 0.00 0.04 0.04 62 1016.0
20260503015407 44 181 2.0 2.0 0.00 0.04 0.04 60 1015.9
20260503014903 44 187 2.0 2.0 0.00 0.04 0.04 67 1016.0
20260503014400 44 202 3.0 3.0 0.00 0.04 0.04 65 1016.0
20260503013858 44 197 3.0 3.0 0.00 0.04 0.04 67 1016.0
20260503013355 44 201 3.0 3.0 0.00 0.04 0.04 69 1015.9
20260503012852 44 208 2.0 2.0 0.00 0.04 0.04 70 1016.0
20260503012349 44 212 3.0 3.0 0.00 0.04 0.04 69 1016.1
20260503011846 44 198 3.0 3.0 0.00 0.04 0.04 66 1015.9
20260503011343 44 193 3.0 3.0 0.00 0.04 0.04 63 1016.0
20260503010839 44 207 3.0 3.0 0.00 0.04 0.04 64 1016.2
20260503010337 45 214 3.0 3.0 0.00 0.04 0.04 66 1015.8
20260503005833 44 216 3.0 3.0 0.00 0.04 0.04 66 1015.8
20260503005331 45 217 1.0 1.0 0.00 0.04 0.04 66 1015.9
20260503004827 45 215 1.0 1.0 0.00 0.04 0.04 62 1016.0
20260503004325 46 228 2.0 2.0 0.00 0.04 0.04 59 1015.8
20260503003822 46 236 2.0 2.0 0.00 0.04 0.04 51 1015.9
20260503003319 46 318 2.0 2.0 0.00 0.04 0.04 48 1015.8
20260503002816 46 240 2.0 2.0 0.00 0.04 0.04 48 1015.8
20260503002313 46 260 3.0 3.0 0.00 0.04 0.04 53 1015.7
20260503001809 47 240 3.0 3.0 0.00 0.04 0.04 54 1015.9
20260503001306 47 255 3.0 3.0 0.00 0.04 0.04 48 1015.6
20260503000803 47 301 1.0 1.0 0.00 0.04 0.04 49 1015.7
20260503000300 47 304 2.0 2.0 0.00 0.04 0.04 48 1015.9
20260502235757 47 298 1.0 1.0 0.00 0.04 0.04 50 1015.7
20260502235255 47 318 1.0 1.0 0.00 0.04 0.04 50 1015.7
20260502234751 47 321 2.0 2.0 0.00 0.04 0.04 48 1015.8
20260502234248 47 307 3.0 3.0 0.00 0.04 0.04 45 1015.7
20260502233744 48 310 3.0 3.0 0.00 0.04 0.04 45 1015.7
20260502233241 48 302 4.0 6.0 0.00 0.04 0.04 45 1015.9
20260502232737 48 325 5.0 6.0 0.00 0.04 0.04 44 1016.0
20260502232234 48 300 5.0 6.0 0.00 0.04 0.04 41 1015.7
20260502231731 48 304 5.0 6.0 0.00 0.04 0.04 41 1015.9
20260502231229 49 291 4.0 5.0 0.00 0.04 0.04 43 1015.6
20260502230727 48 305 5.0 6.0 0.00 0.04 0.04 43 1015.9
20260502230225 48 335 6.0 7.0 0.00 0.04 0.04 43 1016.0
20260502225721 48 327 5.0 6.0 0.00 0.04 0.04 44 1015.9
20260502225218 48 295 7.0 7.0 0.00 0.04 0.04 43 1015.8
20260502224714 48 313 4.0 5.0 0.00 0.04 0.04 45 1015.8
20260502224211 48 314 4.0 6.0 0.00 0.04 0.04 44 1015.8